Flag for South Africa Weather past 2 weeks in Bloemfontein, South Africa

Now
30 °F

Sunny.


Feels Like: 30 °F
Forecast: 35 / 67 °F
Wind: 2 mph from North

Location: Bloemfontein Airport

Current Time: Jul 2, 2015 at 8:10:20 AM

Latest Report: Jul 2, 2015 at 7:00 AM


Visibility: 10 mi

Pressure: 30.39 "Hg

Humidity: 86%

Dew point: 27 °F

Location of BloemfonteinLocation

Historic Weather in Bloemfontein — Graph

°F

Bloemfontein temperature yesterday

Maximum temperature yesterday: 64 °F (at 5:00 PM)
Minimum temperature yesterday: 28 °F (at 6:00 AM)
Average temperature yesterday: 44 °F

Past Weeks' High & Low Weather Summary

 TemperatureHumidityPressure
High70 °F (Jun 26, 3:00 PM)100% (Jun 18, 7:00 AM)30.57 "Hg (Jun 18, 7:00 AM)
Low27 °F (Jun 18, 7:00 AM)19% (Jun 23, 5:00 PM)30.12 "Hg (Jun 17, 7:00 AM)
Average46 °F64%30.34 "Hg
* Reported Jun 17 7:00 AM — Jul 2 7:00 AM, Bloemfontein, Weather by CustomWeather, © 2015

Note: Actual official high and low records may vary slightly from our data, if they occured in-between our weather recording intervals... More about our weather records

Advertising

Bloemfontein weather history for previous 24 hours

 ConditionsComfort  
Time TempWeatherWind HumidityBarometerVisibility
7:00 AM
Thu, Jul 2
30 °FSunny.2 mph86%30.39 "Hg10 mi
6:00 AM32 °FClear.No wind87%30.36 "Hg10 mi
5:00 AM32 °FClear.No wind93%30.39 "Hg10 mi
4:00 AM32 °FChilly.1 mph87%30.36 "HgN/A
3:00 AM34 °FChilly.2 mph87%30.36 "HgN/A
2:00 AM32 °FChilly.No wind93%30.39 "HgN/A
1:00 AM34 °FChilly.2 mph87%30.39 "HgN/A
12:00 AM36 °FChilly.2 mph81%30.39 "HgN/A
11:00 PM
Wed, Jul 1
36 °FChilly.No wind87%30.42 "HgN/A
10:00 PM37 °FChilly.1 mph81%30.39 "HgN/A
9:00 PM41 °FQuite cool.2 mph76%30.39 "HgN/A
8:00 PM43 °FClear.No wind66%30.39 "Hg10 mi
7:00 PM48 °FClear.2 mph54%30.36 "Hg10 mi
6:00 PM55 °FClear.1 mph38%30.36 "Hg10 mi
5:00 PM64 °FClear.No wind24%30.36 "Hg10 mi
4:00 PM63 °FPassing clouds.6 mph25%30.33 "HgN/A
3:00 PM63 °FPassing clouds.5 mph27%30.33 "HgN/A
2:00 PM63 °FSunny.2 mph30%30.36 "Hg10 mi
1:00 PM59 °FSunny.3 mph31%30.36 "Hg10 mi
12:00 PM57 °FPassing clouds.5 mph39%30.42 "HgN/A
11:00 AM54 °FSunny.5 mph47%30.45 "Hg10 mi
10:00 AM46 °FSunny.2 mph66%30.42 "Hg10 mi
9:00 AM41 °FSunny.No wind76%30.39 "Hg10 mi
8:00 AM34 °FFog.No wind93%30.42 "Hg4 mi
Weather by CustomWeather, © 2015

See weather overviewHow to use our weather pages